Hourly Weather Roundup
Issued by NWS Central Illinois

Home | Current Version | Previous Version | Graphics & Text | Print | Product List | Glossary On
Versions: 1 2 3 4 5 6 7 8 9 10 11 12 13 14 15 16 17 18 19 20 21 22 23 24 25 26 27 28 29 30 31 32 33 34 35 36 37 38 39 40 41 42 43 44 45 46 47 48 49 50
000
NZUS43 KILX 181410
HWRILX

AREA WEATHER ROUNDUP
NATIONAL WEATHER SERVICE, LINCOLN IL
900 AM CDT THU SEP 18 2014


CITY           SKY/WX    TMP DP  RH WIND       PRES   REMARKS
BLOOMINGTON    SUNNY     60  52  75 E6        30.12R
CHAMPAIGN      SUNNY     61  52  72 E9        30.10S
DECATUR        SUNNY     62  54  74 E9        30.10R
FLORA          MOSUNNY   60  53  76 NE7       30.08R
GALESBURG      SUNNY     59  56  89 CALM      30.11R
JACKSONVILLE   MOSUNNY   60  59  96 E3        30.10R
LACON          SUNNY     54  52  93 CALM      30.11R
LAWRENCEVILLE  CLOUDY    60  54  80 NE9       30.09R
LITCHFIELD     CLOUDY    58  53  83 E6        30.08R
$$


CITY           SKY/WX    TMP DP  RH WIND       PRES   REMARKS
LINCOLN        MOSUNNY   62  54  76 E5        30.09R
MACOMB         SUNNY     56  56 100 E6        30.12R
MATTOON        SUNNY     60  53  77 E7        30.09R
MT CARMEL AP   MOSUNNY   63  54  72 E5        30.08R
OLNEY-NOBLE AP CLOUDY    61  54  77 NE3       30.08R
PARIS          SUNNY     60  54  79 NE5       30.10S
PEORIA         SUNNY     59  53  80 NE5       30.11R
PONTIAC        SUNNY     61  54  77 SE3       30.12S
RANTOUL        SUNNY     63  51  64 E6        30.12R
ROBINSON       MOSUNNY   58  58  99 CALM      30.10R
SPRINGFIELD    MOSUNNY   59  53  80 E7        30.11R
TAYLORVILLE    MOSUNNY   57  52  82 E6        30.09R
$$

...REGIONAL REPORTS...


CITY           SKY/WX    TMP DP  RH WIND       PRES   REMARKS
CHICAGO O`HARE MOSUNNY   58  53  84 N3        30.15R
KANKAKEE       SUNNY     57  52  85 NE6       30.15R
MOLINE         SUNNY     57  53  86 CALM      30.12R
MOUNT VERNON   PTSUNNY   63  54  72 NE9       30.07R
PITTSFIELD     MOSUNNY   58  55  90 CALM      30.11R
QUINCY         MOSUNNY   57  52  83 E7        30.09R
ROCKFORD       CLOUDY    51  49  92 E8        30.19R FOG
$$


CITY           SKY/WX    TMP DP  RH WIND       PRES   REMARKS
BURLINGTON     SUNNY     59  53  80 E6        30.10R
CEDAR RAPIDS   SUNNY     58  56  93 CALM      30.11R FOG
DES MOINES     DRZL/FOG  57  56  96 SE5       30.09R VSB 1/8
KIRKSVILLE     FOG       56  55  97 E7        30.10R VSB 1
OTTUMWA        SUNNY     54  53  97 E5        30.08S FOG
ST LOUIS       CLOUDY    63  56  78 E7        30.07R
$$


CITY           SKY/WX    TMP DP  RH WIND       PRES   REMARKS
TERRE HAUTE    SUNNY     61  52  72 NE8       30.09S
EVANSVILLE     CLOUDY    62  53  72 NE8       30.07R
INDIANAPOLIS   MOSUNNY   60  49  66 NE3       30.10R
LAFAYETTE      SUNNY     56  51  84 CALM      30.13R
MADISON        CLOUDY    50  48  93 E8        30.18R FOG
MILWAUKEE      CLOUDY    53  49  86 N9G18     30.17R
$$




USA.gov is the U.S. government's official web portal to all federal, state and local government web resources and services.